Location: Quedlinburg
(51.7921°N, 11.1414°E)
Time: 22:06:56
(UTC+01:00)

LilacSat-2 - Visible Passes

Search period start: 16 March 2026 00:00
Search period end: 26 March 2026 00:00
Orbit: 418 x 426 km, 97.5° (Epoch: 16 March)

Date Brightness Start Highest point End Pass type
(mag) Time Alt. Az. Time Alt. Az. Time Alt. Az.
16 Mar ? 19:15:55 10° SSE 19:19:11 84° WSW 19:22:28 10° NNW visible
17 Mar ? 20:05:18 10° SSW 20:07:55 22° W 20:10:32 10° NW visible
18 Mar ? 19:20:51 10° S 19:24:06 74° WSW 19:27:23 10° NNW visible
19 Mar ? 20:10:21 10° SW 20:12:48 20° W 20:15:15 10° NW visible
20 Mar ? 19:25:40 10° S 19:28:54 64° WSW 19:32:10 10° NNW visible
21 Mar ? 20:15:17 10° SW 20:17:33 18° W 20:19:51 10° NW visible
22 Mar ? 19:30:23 10° S 19:33:35 56° W 19:36:48 10° NNW visible
23 Mar ? 20:20:06 10° SW 20:22:11 16° W 20:24:17 10° NW visible
24 Mar ? 19:34:58 10° S 19:38:07 50° W 19:41:19 10° NNW visible
25 Mar ? 20:24:50 10° SW 20:26:42 14° W 20:28:34 10° NW visible
